This is the latest recevied weather packets stored in our database for station/object DM4XI-13. If no packets are shown the sender has not sent any weather packets the latest 10 day(s).
| Time | Temp. | Humidity | Pressure | Rain* | Wind** | Luminosity | Snow |
|---|---|---|---|---|---|---|---|
| 1778153272 | 12.22° C | 76% | 1011.3 hPa | 0 mm | 2.24 m/s, 263° | 161 W/m² | - |
| 1778153211 | 12.22° C | 77% | 1011.3 hPa | 0 mm | 1.79 m/s, 274° | 165 W/m² | - |
| 1778153150 | 12.22° C | 78% | 1011.1 hPa | 0 mm | 0.89 m/s, 346° | 179 W/m² | - |
| 1778153089 | 12.22° C | 77% | 1011.3 hPa | 0 mm | 0.89 m/s, 295° | 204 W/m² | - |
| 1778153028 | 12.22° C | 76% | 1011.2 hPa | 0 mm | 0.89 m/s, 213° | 228 W/m² | - |
| 1778152967 | 12.22° C | 78% | 1011.3 hPa | 0 mm | 2.24 m/s, 286° | 239 W/m² | - |
| 1778152906 | 12.22° C | 77% | 1011.1 hPa | 0 mm | 1.79 m/s, 281° | 247 W/m² | - |
| 1778152845 | 12.22° C | 78% | 1011.1 hPa | 0 mm | 1.34 m/s, 289° | 259 W/m² | - |
| 1778152783 | 12.22° C | 79% | 1011.3 hPa | 0 mm | 1.79 m/s, 301° | 267 W/m² | - |
| 1778152722 | 12.22° C | 79% | 1011.2 hPa | 0 mm | 1.34 m/s, 314° | 266 W/m² | - |
| 1778152662 | 11.67° C | 80% | 1011.1 hPa | 0 mm | 1.34 m/s, 311° | 228 W/m² | - |
| 1778152601 | 11.67° C | 80% | 1011.1 hPa | 0 mm | 0.45 m/s, 310° | 194 W/m² | - |
| 1778152540 | 11.67° C | 80% | 1011 hPa | 0 mm | 0.89 m/s, 297° | 170 W/m² | - |
| 1778152479 | 11.67° C | 81% | 1011.2 hPa | 0 mm | 0.89 m/s, 281° | 143 W/m² | - |
| 1778152418 | 11.67° C | 81% | 1011.1 hPa | 0 mm | 0.89 m/s, 260° | 126 W/m² | - |
| 1778152357 | 11.67° C | 81% | 1011.2 hPa | 0 mm | 0.45 m/s, 238° | 108 W/m² | - |
| 1778152296 | 11.67° C | 80% | 1011.2 hPa | 0 mm | 2.68 m/s, 289° | 99 W/m² | - |
| 1778152235 | 11.67° C | 80% | 1011.1 hPa | 0 mm | 1.34 m/s, 292° | 96 W/m² | - |
| 1778152173 | 11.67° C | 80% | 1011.1 hPa | 0 mm | 1.34 m/s, 312° | 107 W/m² | - |
| 1778152113 | 11.67° C | 81% | 1011.3 hPa | 0 mm | 0.89 m/s, 330° | 127 W/m² | - |
| 1778152052 | 11.67° C | 82% | 1011.1 hPa | 0 mm | 1.34 m/s, 261° | 159 W/m² | - |
| 1778151991 | 11.67° C | 80% | 1011.2 hPa | 0 mm | 1.79 m/s, 240° | 186 W/m² | - |
| 1778151929 | 11.67° C | 81% | 1011 hPa | 0 mm | 1.79 m/s, 267° | 192 W/m² | - |
| 1778151868 | 11.67° C | 83% | 1011 hPa | 0 mm | 0 m/s | 174 W/m² | - |
| 1778151807 | 11.67° C | 82% | 1011.1 hPa | 0 mm | 2.24 m/s, 285° | 157 W/m² | - |
* Rain latest hour (hover to see other rain measurements)
** Current wind speed in m/s (hover to see current wind gust speed)